Niagara Falls, NY

6:22 AM EDT on April 27, 2017 (GMT -0400)
Niagara Falls International

Weather History for KIAG - November, 2013

Change the Weather History Date:

Thursday, November 21, 2013

  Actual Average Record
Temperature  
Mean Temperature 36 °F -  
Max Temperature 44 °F 44 °F 57 °F (1992)
Min Temperature 28 °F 30 °F 17 °F (2014)
Degree Days  
Heating Degree Days 29    
Moisture  
Dew Point 28 °F    
Average Humidity 66    
Maximum Humidity 93    
Minimum Humidity 42    
Precipitation  
Precipitation 0.00 in - - ()
Sea Level Pressure  
Sea Level Pressure 30.37 in    
Wind  
Wind Speed 8 mph (South)    
Max Wind Speed 14 mph    
Max Gust Speed -    
Visibility 10 miles    
Events Rain    
Averages and records for this station are not official NWS values.
T = Trace of Precipitation, MM = Missing Value Source: NWS Daily Summary

Daily Weather History Graph

Daily Weather History Graph

Search for Another Location

Airport or City:

Trip Planner

Search our weather history database for the weather conditions in past years. The results will help you decide how hot, cold, wet, or windy it might be!

Date:

Astronomy

Nov. 21, 2013 Rise Set
Actual Time 7:16 AM EST 4:46 PM EST
Civil Twilight 6:45 AM EST 5:17 PM EST
Nautical Twilight 6:10 AM EST 5:52 PM EST
Astronomical Twilight 5:36 AM EST 6:26 PM EST
Moon 8:22 PM EST (11/21) 10:20 AM EST (11/21)
Length of Visible Light 10h 32m
Length of Day
9h 30m
Waning Gibbous, 85% of the Moon is Illuminated
Nov 21
Waning Gibbous
Nov 25
Last Quarter
Dec 2
New
Dec 9
First Quarter
Dec 17
Full

Hourly Weather History & Observations

Time (EST) Temp. Windchill Dew Point Humidity Pressure Visibility Wind Dir Wind Speed Gust Speed Precip Events Conditions
12:53 AM 28.9 °F 22.8 °F 16.0 °F 58% 30.43 in 10.0 mi SSE 5.8 mph - N/A   Clear
1:53 AM 33.1 °F 27.7 °F 14.0 °F 46% 30.43 in 10.0 mi South 5.8 mph - N/A   Clear
2:53 AM 36.0 °F 28.0 °F 15.1 °F 43% 30.42 in 10.0 mi South 11.5 mph - N/A   Clear
3:53 AM 35.1 °F 29.3 °F 16.0 °F 46% 30.43 in 10.0 mi South 6.9 mph - N/A   Clear
4:53 AM 37.0 °F 31.0 °F 16.0 °F 42% 30.42 in 10.0 mi South 8.1 mph - N/A   Clear
5:53 AM 37.0 °F 31.6 °F 17.1 °F 44% 30.42 in 10.0 mi SSW 6.9 mph - N/A   Clear
6:53 AM 37.9 °F 31.5 °F 19.0 °F 47% 30.43 in 10.0 mi SSW 9.2 mph - N/A   Clear
6:59 AM 37.4 °F 30.3 °F 19.4 °F 48% 30.38 in 10.0 mi South 10.4 mph - N/A   Mostly Cloudy
7:53 AM 39.0 °F 31.8 °F 21.0 °F 49% 30.42 in 10.0 mi South 11.5 mph - N/A   Mostly Cloudy
8:53 AM 41.0 °F 33.9 °F 23.0 °F 49% 30.42 in 10.0 mi South 12.7 mph - N/A   Mostly Cloudy
9:53 AM 41.0 °F 33.9 °F 24.1 °F 51% 30.41 in 10.0 mi South 12.7 mph - N/A   Mostly Cloudy
10:53 AM 42.1 °F 35.2 °F 26.1 °F 53% 30.40 in 10.0 mi South 12.7 mph - N/A   Overcast
11:53 AM 44.1 °F 37.7 °F 27.0 °F 51% 30.38 in 10.0 mi South 12.7 mph - N/A   Overcast
12:53 PM 44.1 °F 39.0 °F 28.0 °F 53% 30.39 in 10.0 mi SSW 9.2 mph - N/A   Overcast
1:21 PM 44.6 °F 38.1 °F 28.4 °F 53% 30.34 in 10.0 mi SSW 13.8 mph - 0.00 in Rain Light Rain
1:53 PM 43.0 °F 36.4 °F 32.0 °F 65% 30.37 in 10.0 mi SSW 12.7 mph - 0.00 in Rain Light Rain
2:53 PM 42.1 °F 37.1 °F 34.0 °F 73% 30.37 in 10.0 mi South 8.1 mph - 0.00 in Rain Light Rain
3:53 PM 42.1 °F 37.7 °F 33.1 °F 70% 30.37 in 10.0 mi South 6.9 mph - 0.00 in Rain Light Rain
4:53 PM 41.0 °F 35.2 °F 35.1 °F 79% 30.35 in 10.0 mi South 9.2 mph - 0.00 in Rain Light Rain
5:21 PM 41.0 °F 36.4 °F 35.6 °F 81% 30.31 in 10.0 mi SSE 6.9 mph - 0.00 in   Overcast
5:53 PM 41.0 °F 35.8 °F 35.1 °F 79% 30.35 in 10.0 mi South 8.1 mph - 0.00 in   Overcast
6:07 PM 42.8 °F 38.6 °F 35.6 °F 76% 30.31 in 10.0 mi South 6.9 mph - 0.00 in Rain Light Rain
6:53 PM 39.9 °F 36.7 °F 36.0 °F 86% 30.36 in 10.0 mi South 4.6 mph - 0.00 in Rain Light Rain
7:01 PM 41.0 °F 38.0 °F 37.4 °F 87% 30.32 in 9.0 mi South 4.6 mph - 0.00 in Rain Light Rain
7:36 PM 39.2 °F 35.0 °F 37.4 °F 93% 30.30 in 8.0 mi SSE 5.8 mph - 0.00 in Rain Light Rain
7:53 PM 39.9 °F 35.8 °F 37.0 °F 89% 30.33 in 8.0 mi SSE 5.8 mph - 0.00 in Rain Light Rain
8:53 PM 39.0 °F 35.7 °F 36.0 °F 89% 30.31 in 9.0 mi SSE 4.6 mph - 0.00 in Rain Light Rain
9:53 PM 39.9 °F 35.8 °F 36.0 °F 86% 30.29 in 10.0 mi SSE 5.8 mph - 0.00 in Rain Light Rain
10:53 PM 39.9 °F 36.7 °F 37.0 °F 89% 30.27 in 9.0 mi SE 4.6 mph - 0.00 in Rain Light Rain
11:53 PM 39.9 °F - 37.9 °F 93% 30.25 in 4.0 mi Calm Calm - 0.00 in Rain Light Rain